| time (UTC) | temp F | wind direction | speed MPH | gust MPH | rain 1hr in | rain 24hr in | rain mn in | humidity % | barometer mb |
| 20260901063257 | 61 | 244 | 8.0 | 23.0 | 0.00 | 0.00 | 0.00 | 78 | 1015.8 |
| 20260901062742 | 61 | 208 | 9.0 | 15.0 | 0.00 | 0.00 | 0.00 | 78 | 1015.8 |
| 20260901062003 | 61 | 234 | 8.0 | 22.0 | 0.00 | 0.00 | 0.00 | 78 | 1015.8 |
| 20260901061440 | 61 | 255 | 11.0 | 22.0 | 0.00 | 0.00 | 0.00 | 78 | 1015.9 |
| 20260901060933 | 61 | 246 | 6.0 | 16.0 | 0.00 | 0.00 | 0.00 | 78 | 1015.8 |
| 20260901060433 | 61 | 222 | 5.0 | 18.0 | 0.00 | 0.00 | 0.00 | 78 | 1015.8 |
| 20260901060211 | 61 | 248 | 11.0 | 18.0 | 0.00 | 0.00 | 0.00 | 78 | 1015.7 |
| 20260901055432 | 61 | 320 | 6.0 | 17.0 | 0.00 | 0.00 | 0.00 | 78 | 1015.7 |
| 20260901054904 | 61 | 244 | 9.0 | 18.0 | 0.00 | 0.00 | 0.00 | 78 | 1015.5 |
| 20260901054653 | 60 | 280 | 13.0 | 18.0 | 0.00 | 0.00 | 0.00 | 78 | 1015.5 |
| 20260901053903 | 60 | 206 | 10.0 | 17.0 | 0.00 | 0.00 | 0.00 | 79 | 1015.4 |
| 20260901053405 | 60 | 246 | 10.0 | 16.0 | 0.00 | 0.00 | 0.00 | 79 | 1015.4 |
| 20260901052905 | 60 | 259 | 7.0 | 15.0 | 0.00 | 0.00 | 0.00 | 79 | 1015.4 |
| 20260901052403 | 60 | 246 | 9.0 | 14.0 | 0.00 | 0.00 | 0.00 | 80 | 1015.2 |
| 20260901051903 | 60 | 283 | 7.0 | 13.0 | 0.00 | 0.00 | 0.00 | 80 | 1015.1 |
| 20260901051404 | 60 | 244 | 6.0 | 13.0 | 0.00 | 0.00 | 0.00 | 80 | 1015.1 |
| 20260901050903 | 60 | 225 | 8.0 | 14.0 | 0.00 | 0.00 | 0.00 | 80 | 1015.0 |
| 20260901050404 | 60 | 259 | 8.0 | 15.0 | 0.00 | 0.00 | 0.00 | 80 | 1015.0 |
| 20260901045904 | 59 | 234 | 6.0 | 15.0 | 0.00 | 0.00 | 0.00 | 80 | 1014.9 |
| 20260901045406 | 59 | 235 | 7.0 | 15.0 | 0.00 | 0.00 | 0.00 | 81 | 1014.9 |
| 20260901045150 | 59 | 266 | 9.0 | 13.0 | 0.00 | 0.00 | 0.00 | 81 | 1014.8 |
| 20260901044403 | 59 | 203 | 6.0 | 13.0 | 0.00 | 0.00 | 0.00 | 81 | 1014.8 |
| 20260901043902 | 58 | 228 | 9.0 | 13.0 | 0.00 | 0.00 | 0.00 | 81 | 1014.9 |
| 20260901043403 | 58 | 272 | 8.0 | 12.0 | 0.00 | 0.00 | 0.00 | 81 | 1014.8 |
| 20260901042902 | 58 | 232 | 7.0 | 14.0 | 0.00 | 0.00 | 0.00 | 81 | 1014.7 |
| 20260901042649 | 58 | 245 | 6.0 | 16.0 | 0.00 | 0.00 | 0.00 | 81 | 1014.7 |
| 20260901041901 | 58 | 235 | 7.0 | 16.0 | 0.00 | 0.00 | 0.00 | 81 | 1014.7 |
| 20260901041403 | 58 | 259 | 8.0 | 14.0 | 0.00 | 0.00 | 0.00 | 81 | 1014.6 |
| 20260901041149 | 58 | 242 | 7.0 | 12.0 | 0.00 | 0.00 | 0.00 | 82 | 1014.6 |
| 20260901040403 | 58 | 245 | 6.0 | 14.0 | 0.00 | 0.00 | 0.00 | 82 | 1014.6 |
| 20260901035903 | 58 | 232 | 7.0 | 14.0 | 0.00 | 0.00 | 0.00 | 82 | 1014.6 |
| 20260901035651 | 58 | 237 | 8.0 | 12.0 | 0.00 | 0.00 | 0.00 | 82 | 1014.6 |
| 20260901034901 | 58 | 241 | 5.0 | 13.0 | 0.00 | 0.00 | 0.00 | 82 | 1014.5 |
| 20260901034402 | 58 | 238 | 9.0 | 13.0 | 0.00 | 0.00 | 0.00 | 82 | 1014.4 |
| 20260901033900 | 58 | 260 | 7.0 | 11.0 | 0.00 | 0.00 | 0.00 | 82 | 1014.5 |
| 20260901033401 | 58 | 238 | 7.0 | 11.0 | 0.00 | 0.00 | 0.00 | 82 | 1014.4 |
| 20260901032900 | 58 | 221 | 7.0 | 12.0 | 0.00 | 0.00 | 0.00 | 82 | 1014.4 |
| 20260901032402 | 58 | 266 | 8.0 | 12.0 | 0.00 | 0.00 | 0.00 | 81 | 1014.4 |
| 20260901032146 | 58 | 252 | 5.0 | 10.0 | 0.00 | 0.00 | 0.00 | 81 | 1014.5 |
| 20260901031653 | 58 | 239 | 6.0 | 14.0 | 0.00 | 0.00 | 0.00 | 81 | 1014.3 |
| 20260901030900 | 58 | 231 | 11.0 | 14.0 | 0.00 | 0.00 | 0.00 | 81 | 1014.3 |
| 20260901030401 | 58 | 245 | 6.0 | 9.0 | 0.00 | 0.00 | 0.00 | 80 | 1014.4 |
| 20260901025859 | 58 | 238 | 6.0 | 10.0 | 0.00 | 0.00 | 0.00 | 80 | 1014.4 |
| 20260901025401 | 58 | 242 | 5.0 | 10.0 | 0.00 | 0.00 | 0.00 | 80 | 1014.3 |
| 20260901025142 | 58 | 229 | 6.0 | 10.0 | 0.00 | 0.00 | 0.00 | 80 | 1014.3 |
| 20260901024402 | 58 | 239 | 6.0 | 12.0 | 0.00 | 0.00 | 0.00 | 80 | 1014.3 |
| 20260901023901 | 58 | 234 | 6.0 | 12.0 | 0.00 | 0.00 | 0.00 | 80 | 1014.4 |
| 20260901023402 | 58 | 225 | 6.0 | 12.0 | 0.00 | 0.00 | 0.00 | 80 | 1014.3 |
| 20260901022900 | 58 | 258 | 7.0 | 12.0 | 0.00 | 0.00 | 0.00 | 80 | 1014.4 |
| 20260901022400 | 59 | 242 | 6.0 | 10.0 | 0.00 | 0.00 | 0.00 | 80 | 1014.4 |
| 20260901021900 | 59 | 213 | 5.0 | 10.0 | 0.00 | 0.00 | 0.00 | 80 | 1014.3 |
| 20260901021442 | 59 | 234 | 7.0 | 11.0 | 0.00 | 0.00 | 0.00 | 79 | 1014.3 |
| 20260901021428 | 59 | 235 | 6.0 | 11.0 | 0.00 | 0.00 | 0.00 | 79 | 1014.4 |
| 20260901020446 | 60 | 238 | 6.0 | 11.0 | 0.00 | 0.00 | 0.00 | 79 | 1014.4 |
| 20260901020428 | 59 | 229 | 6.0 | 9.0 | 0.00 | 0.00 | 0.00 | 79 | 1014.4 |
| 20260901015649 | 60 | 234 | 4.0 | 11.0 | 0.00 | 0.00 | 0.00 | 78 | 1014.3 |
| 20260901015145 | 60 | 227 | 6.0 | 10.0 | 0.00 | 0.00 | 0.00 | 77 | 1014.4 |
| 20260901014400 | 60 | 227 | 7.0 | 10.0 | 0.00 | 0.00 | 0.00 | 76 | 1014.4 |
| 20260901013858 | 60 | 234 | 5.0 | 14.0 | 0.00 | 0.00 | 0.00 | 76 | 1014.4 |
| 20260901013359 | 61 | 232 | 4.0 | 14.0 | 0.00 | 0.00 | 0.00 | 76 | 1014.4 |
| 20260901012858 | 61 | 256 | 5.0 | 9.0 | 0.00 | 0.00 | 0.00 | 76 | 1014.3 |
| 20260901012400 | 61 | 221 | 4.0 | 9.0 | 0.00 | 0.00 | 0.00 | 76 | 1014.3 |
| 20260901011858 | 61 | 229 | 5.0 | 9.0 | 0.00 | 0.00 | 0.00 | 76 | 1014.4 |
| 20260901011400 | 61 | 268 | 5.0 | 13.0 | 0.00 | 0.00 | 0.00 | 76 | 1014.3 |
| 20260901010857 | 61 | 227 | 6.0 | 13.0 | 0.00 | 0.00 | 0.00 | 76 | 1014.3 |
| 20260901010644 | 61 | 251 | 7.0 | 11.0 | 0.00 | 0.00 | 0.00 | 76 | 1014.4 |
| 20260901005857 | 61 | 225 | 6.0 | 11.0 | 0.00 | 0.00 | 0.00 | 76 | 1014.4 |
| 20260901005358 | 61 | 225 | 8.0 | 11.0 | 0.00 | 0.00 | 0.00 | 77 | 1014.3 |
| 20260901004857 | 61 | 251 | 6.0 | 13.0 | 0.00 | 0.00 | 0.00 | 77 | 1014.3 |
| 20260901004359 | 61 | 244 | 5.0 | 13.0 | 0.00 | 0.00 | 0.00 | 77 | 1014.3 |
| 20260901003857 | 61 | 268 | 6.0 | 10.0 | 0.00 | 0.00 | 0.00 | 77 | 1014.4 |
| 20260901003358 | 61 | 272 | 7.0 | 10.0 | 0.00 | 0.00 | 0.00 | 77 | 1014.3 |
| 20260901002858 | 61 | 244 | 3.0 | 10.0 | 0.00 | 0.00 | 0.00 | 77 | 1014.4 |
| 20260901002643 | 61 | 258 | 5.0 | 10.0 | 0.00 | 0.00 | 0.00 | 77 | 1014.3 |
| 20260901001857 | 61 | 275 | 5.0 | 9.0 | 0.00 | 0.00 | 0.00 | 78 | 1014.2 |
| 20260901001647 | 61 | 249 | 4.0 | 11.0 | 0.00 | 0.00 | 0.00 | 78 | 1014.2 |
| 20260901000856 | 61 | 245 | 6.0 | 11.0 | 0.00 | 0.00 | 0.00 | 78 | 1014.3 |
| 20260901000358 | 61 | 244 | 4.0 | 14.0 | 0.00 | 0.00 | 0.00 | 79 | 1014.2 |
| 20260901000141 | 61 | 229 | 6.0 | 14.0 | 0.00 | 0.00 | 0.00 | 79 | 1014.2 |
| 20260831235357 | 61 | 263 | 8.0 | 11.0 | 0.00 | 0.00 | 0.00 | 79 | 1014.2 |
| 20260831234856 | 62 | 242 | 3.0 | 9.0 | 0.00 | 0.00 | 0.00 | 79 | 1014.2 |
| 20260831234357 | 62 | 222 | 4.0 | 10.0 | 0.00 | 0.00 | 0.00 | 79 | 1014.2 |
| 20260831233857 | 62 | 229 | 6.0 | 10.0 | 0.00 | 0.00 | 0.00 | 79 | 1014.2 |
| 20260831233357 | 62 | 220 | 4.0 | 10.0 | 0.00 | 0.00 | 0.00 | 79 | 1014.0 |
| 20260831232856 | 61 | 231 | 8.0 | 10.0 | 0.00 | 0.00 | 0.00 | 79 | 1014.1 |
| 20260831232357 | 60 | 231 | 4.0 | 6.0 | 0.00 | 0.00 | 0.00 | 79 | 1014.1 |
| 20260831231856 | 60 | 275 | 2.0 | 4.0 | 0.00 | 0.00 | 0.00 | 79 | 1014.0 |
| 20260831231356 | 60 | 275 | 2.0 | 3.0 | 0.00 | 0.00 | 0.00 | 79 | 1013.9 |
| 20260831230855 | 60 | 275 | 2.0 | 3.0 | 0.00 | 0.00 | 0.00 | 78 | 1013.9 |
| 20260831230356 | 60 | 275 | 2.0 | 2.0 | 0.00 | 0.00 | 0.00 | 78 | 1013.8 |
| 20260831225855 | 60 | 275 | 1.0 | 2.0 | 0.00 | 0.00 | 0.00 | 78 | 1013.6 |
| 20260831225356 | 60 | 275 | 2.0 | 2.0 | 0.00 | 0.00 | 0.00 | 77 | 1013.7 |
| 20260831224854 | 60 | 275 | 1.0 | 2.0 | 0.00 | 0.00 | 0.00 | 77 | 1013.6 |
| 20260831224643 | 60 | 275 | 1.0 | 2.0 | 0.00 | 0.00 | 0.00 | 77 | 1013.6 |
| 20260831223855 | 60 | 275 | 1.0 | 2.0 | 0.00 | 0.00 | 0.00 | 77 | 1013.6 |
| 20260831223358 | 61 | 275 | 2.0 | 2.0 | 0.00 | 0.00 | 0.00 | 77 | 1013.6 |
| 20260831222855 | 61 | 275 | 2.0 | 3.0 | 0.00 | 0.00 | 0.00 | 77 | 1013.5 |
| 20260831222641 | 61 | 275 | 2.0 | 3.0 | 0.00 | 0.00 | 0.00 | 77 | 1013.5 |
| 20260831221854 | 62 | 275 | 2.0 | 3.0 | 0.00 | 0.00 | 0.00 | 77 | 1013.4 |
| 20260831221355 | 62 | 275 | 2.0 | 2.0 | 0.00 | 0.00 | 0.00 | 76 | 1013.3 |
| 20260831220853 | 62 | 275 | 2.0 | 3.0 | 0.00 | 0.00 | 0.00 | 76 | 1013.4 |
| 20260831220647 | 62 | 275 | 1.0 | 6.0 | 0.00 | 0.00 | 0.00 | 76 | 1013.4 |
| 20260831215854 | 63 | 275 | 3.0 | 6.0 | 0.00 | 0.00 | 0.00 | 76 | 1013.3 |
| 20260831215355 | 63 | 283 | 3.0 | 4.0 | 0.00 | 0.00 | 0.00 | 76 | 1013.4 |
| 20260831214855 | 63 | 283 | 2.0 | 5.0 | 0.00 | 0.00 | 0.00 | 76 | 1013.5 |
| 20260831214355 | 63 | 280 | 1.0 | 6.0 | 0.00 | 0.00 | 0.00 | 76 | 1013.5 |
| 20260831213853 | 64 | 301 | 3.0 | 9.0 | 0.00 | 0.00 | 0.00 | 76 | 1013.6 |
| 20260831213355 | 64 | 282 | 5.0 | 9.0 | 0.00 | 0.00 | 0.00 | 76 | 1013.7 |
| 20260831212853 | 64 | 270 | 4.0 | 9.0 | 0.00 | 0.00 | 0.00 | 76 | 1013.7 |
| 20260831212355 | 64 | 290 | 6.0 | 9.0 | 0.00 | 0.00 | 0.00 | 75 | 1013.6 |
| 20260831212145 | 64 | 282 | 5.0 | 9.0 | 0.00 | 0.00 | 0.00 | 75 | 1013.6 |
| 20260831211354 | 64 | 292 | 2.0 | 7.0 | 0.00 | 0.00 | 0.00 | 75 | 1013.5 |
| 20260831210852 | 64 | 290 | 3.0 | 12.0 | 0.00 | 0.00 | 0.00 | 75 | 1013.5 |
| 20260831210355 | 64 | 290 | 2.0 | 12.0 | 0.00 | 0.00 | 0.00 | 75 | 1013.2 |
| 20260831205853 | 64 | 286 | 4.0 | 6.0 | 0.00 | 0.00 | 0.00 | 75 | 1013.1 |
| 20260831205646 | 64 | 246 | 4.0 | 6.0 | 0.00 | 0.00 | 0.00 | 75 | 1012.9 |
| 20260831204852 | 64 | 244 | 3.0 | 6.0 | 0.00 | 0.00 | 0.00 | 74 | 1012.8 |
| 20260831204642 | 64 | 246 | 4.0 | 6.0 | 0.00 | 0.00 | 0.00 | 74 | 1012.8 |
| 20260831203852 | 64 | 235 | 4.0 | 6.0 | 0.00 | 0.00 | 0.00 | 74 | 1012.7 |
| 20260831203353 | 65 | 235 | 4.0 | 7.0 | 0.00 | 0.00 | 0.00 | 74 | 1012.7 |
| 20260831202852 | 65 | 239 | 3.0 | 7.0 | 0.00 | 0.00 | 0.00 | 74 | 1012.7 |
| 20260831202354 | 65 | 241 | 4.0 | 7.0 | 0.00 | 0.00 | 0.00 | 74 | 1012.8 |
| 20260831201850 | 65 | 241 | 4.0 | 6.0 | 0.00 | 0.00 | 0.00 | 73 | 1012.7 |
| 20260831201354 | 65 | 239 | 4.0 | 6.0 | 0.00 | 0.00 | 0.00 | 73 | 1012.6 |
| 20260831200852 | 65 | 238 | 4.0 | 6.0 | 0.00 | 0.00 | 0.00 | 73 | 1012.6 |
| 20260831200354 | 66 | 238 | 4.0 | 9.0 | 0.00 | 0.00 | 0.00 | 72 | 1012.5 |
| 20260831195853 | 66 | 244 | 4.0 | 9.0 | 0.00 | 0.00 | 0.00 | 72 | 1012.5 |
| 20260831195728 | 66 | 252 | 4.0 | 9.0 | 0.00 | 0.00 | 0.00 | 72 | 1012.3 |
| 20260831195431 | 66 | 242 | 5.0 | 7.0 | 0.00 | 0.00 | 0.00 | 72 | 1012.4 |
| 20260831194352 | 66 | 245 | 4.0 | 13.0 | 0.00 | 0.00 | 0.00 | 72 | 1012.3 |
| 20260831193941 | 65 | 221 | 5.0 | 9.0 | 0.00 | 0.00 | 0.00 | 73 | 1012.3 |
| 20260831193921 | 66 | 232 | 7.0 | 13.0 | 0.00 | 0.00 | 0.00 | 73 | 1012.4 |
| 20260831192851 | 65 | 235 | 5.0 | 10.0 | 0.00 | 0.00 | 0.00 | 75 | 1012.2 |
| 20260831192352 | 65 | 231 | 7.0 | 10.0 | 0.00 | 0.00 | 0.00 | 75 | 1012.3 |
| 20260831191850 | 64 | 255 | 5.0 | 6.0 | 0.00 | 0.00 | 0.00 | 75 | 1012.3 |
| 20260831191352 | 64 | 220 | 4.0 | 5.0 | 0.00 | 0.00 | 0.00 | 75 | 1012.2 |
| 20260831190850 | 64 | 218 | 5.0 | 6.0 | 0.00 | 0.00 | 0.00 | 75 | 1012.2 |
| 20260831190352 | 64 | 204 | 4.0 | 6.0 | 0.00 | 0.00 | 0.00 | 75 | 1012.1 |
| 20260831185850 | 64 | 206 | 4.0 | 5.0 | 0.00 | 0.00 | 0.00 | 75 | 1012.0 |
| 20260831185640 | 65 | 206 | 4.0 | 5.0 | 0.00 | 0.00 | 0.00 | 75 | 1012.1 |
| 20260831184850 | 65 | 204 | 4.0 | 5.0 | 0.00 | 0.00 | 0.00 | 75 | 1012.0 |
| 20260831184350 | 65 | 220 | 3.0 | 5.0 | 0.00 | 0.00 | 0.00 | 75 | 1012.0 |
| 20260831183850 | 65 | 220 | 2.0 | 3.0 | 0.00 | 0.00 | 0.00 | 74 | 1012.0 |
| 20260831183352 | 65 | 220 | 2.0 | 3.0 | 0.00 | 0.00 | 0.00 | 73 | 1011.9 |
| 20260831182851 | 66 | 220 | 2.0 | 4.0 | 0.00 | 0.00 | 0.00 | 73 | 1011.9 |
| 20260831182352 | 66 | 220 | 2.0 | 5.0 | 0.00 | 0.00 | 0.00 | 73 | 1011.9 |
| 20260831181852 | 66 | 220 | 3.0 | 5.0 | 0.00 | 0.00 | 0.00 | 73 | 1011.9 |
| 20260831181353 | 67 | 220 | 4.0 | 5.0 | 0.00 | 0.00 | 0.00 | 73 | 1011.9 |
| 20260831180849 | 67 | 220 | 3.0 | 5.0 | 0.00 | 0.00 | 0.00 | 72 | 1011.7 |
| 20260831180350 | 67 | 220 | 3.0 | 5.0 | 0.00 | 0.00 | 0.00 | 72 | 1011.8 |
| 20260831175849 | 68 | 220 | 4.0 | 5.0 | 0.00 | 0.00 | 0.00 | 71 | 1011.7 |
| 20260831175351 | 68 | 220 | 4.0 | 5.0 | 0.00 | 0.00 | 0.00 | 71 | 1011.8 |
| 20260831175134 | 69 | 224 | 3.0 | 5.0 | 0.00 | 0.00 | 0.00 | 71 | 1011.7 |
| 20260831174351 | 69 | 224 | 3.0 | 5.0 | 0.00 | 0.00 | 0.00 | 70 | 1011.7 |
| 20260831173850 | 70 | 225 | 3.0 | 5.0 | 0.00 | 0.00 | 0.00 | 69 | 1011.7 |
| 20260831173351 | 70 | 225 | 4.0 | 6.0 | 0.00 | 0.00 | 0.00 | 69 | 1011.6 |
| 20260831172848 | 70 | 241 | 4.0 | 7.0 | 0.00 | 0.00 | 0.00 | 69 | 1011.6 |
| 20260831172349 | 70 | 232 | 5.0 | 7.0 | 0.00 | 0.00 | 0.00 | 69 | 1011.6 |
| 20260831172135 | 71 | 208 | 4.0 | 6.0 | 0.00 | 0.00 | 0.00 | 68 | 1011.6 |
| 20260831171349 | 71 | 255 | 3.0 | 7.0 | 0.00 | 0.00 | 0.00 | 68 | 1011.6 |
| 20260831170847 | 71 | 258 | 4.0 | 7.0 | 0.00 | 0.00 | 0.00 | 68 | 1011.6 |
| 20260831170350 | 71 | 217 | 4.0 | 7.0 | 0.00 | 0.00 | 0.00 | 68 | 1011.5 |
| 20260831165850 | 72 | 215 | 4.0 | 7.0 | 0.00 | 0.00 | 0.00 | 67 | 1011.5 |
| 20260831165635 | 72 | 232 | 4.0 | 6.0 | 0.00 | 0.00 | 0.00 | 66 | 1011.6 |
| 20260831164849 | 72 | 224 | 3.0 | 7.0 | 0.00 | 0.00 | 0.00 | 66 | 1011.6 |
| 20260831164628 | 72 | 234 | 5.0 | 12.0 | 0.00 | 0.00 | 0.00 | 65 | 1011.5 |
| 20260831163847 | 72 | 231 | 6.0 | 12.0 | 0.00 | 0.00 | 0.00 | 65 | 1011.6 |
| 20260831163347 | 73 | 186 | 7.0 | 11.0 | 0.00 | 0.00 | 0.00 | 65 | 1011.5 |
| 20260831162848 | 73 | 253 | 7.0 | 11.0 | 0.00 | 0.00 | 0.00 | 66 | 1011.5 |
| 20260831162346 | 73 | 227 | 4.0 | 11.0 | 0.00 | 0.00 | 0.00 | 66 | 1011.5 |
| 20260831161849 | 73 | 246 | 8.0 | 10.0 | 0.00 | 0.00 | 0.00 | 66 | 1011.5 |
| 20260831161348 | 73 | 242 | 5.0 | 9.0 | 0.00 | 0.00 | 0.00 | 66 | 1011.5 |
| 20260831160846 | 73 | 231 | 6.0 | 10.0 | 0.00 | 0.00 | 0.00 | 65 | 1011.5 |
| 20260831160348 | 73 | 246 | 6.0 | 10.0 | 0.00 | 0.00 | 0.00 | 65 | 1011.4 |
| 20260831160130 | 73 | 237 | 5.0 | 14.0 | 0.00 | 0.00 | 0.00 | 65 | 1011.5 |
| 20260831155346 | 73 | 238 | 7.0 | 18.0 | 0.00 | 0.00 | 0.00 | 64 | 1011.5 |
| 20260831154846 | 73 | 294 | 9.0 | 18.0 | 0.00 | 0.00 | 0.00 | 64 | 1011.5 |
| 20260831154346 | 74 | 201 | 9.0 | 15.0 | 0.00 | 0.00 | 0.00 | 64 | 1011.6 |
| 20260831153845 | 74 | 231 | 10.0 | 16.0 | 0.00 | 0.00 | 0.00 | 64 | 1011.6 |
| 20260831153344 | 74 | 277 | 10.0 | 16.0 | 0.00 | 0.00 | 0.00 | 65 | 1011.7 |
| 20260831152845 | 74 | 231 | 10.0 | 15.0 | 0.00 | 0.00 | 0.00 | 66 | 1011.7 |
| 20260831152624 | 74 | 237 | 9.0 | 15.0 | 0.00 | 0.00 | 0.00 | 67 | 1011.7 |
| 20260831151846 | 74 | 225 | 7.0 | 15.0 | 0.00 | 0.00 | 0.00 | 63 | 1011.6 |
| 20260831151346 | 74 | 208 | 8.0 | 14.0 | 0.00 | 0.00 | 0.00 | 63 | 1011.8 |
| 20260831151127 | 73 | 225 | 9.0 | 15.0 | 0.00 | 0.00 | 0.00 | 63 | 1011.8 |
| 20260831150345 | 73 | 273 | 11.0 | 15.0 | 0.00 | 0.00 | 0.00 | 63 | 1011.8 |
| 20260831150122 | 74 | 225 | 9.0 | 14.0 | 0.00 | 0.00 | 0.00 | 64 | 1011.8 |
| 20260831145344 | 74 | 235 | 7.0 | 13.0 | 0.00 | 0.00 | 0.00 | 64 | 1011.9 |
| 20260831144845 | 74 | 229 | 9.0 | 13.0 | 0.00 | 0.00 | 0.00 | 65 | 1011.8 |
| 20260831144635 | 73 | 201 | 6.0 | 14.0 | 0.00 | 0.00 | 0.00 | 65 | 1011.8 |
| 20260831143845 | 73 | 239 | 8.0 | 14.0 | 0.00 | 0.00 | 0.00 | 65 | 1011.8 |
| 20260831143344 | 73 | 241 | 6.0 | 11.0 | 0.00 | 0.00 | 0.00 | 65 | 1011.8 |
| 20260831142844 | 74 | 268 | 5.0 | 11.0 | 0.00 | 0.00 | 0.00 | 65 | 1011.8 |
| 20260831142626 | 74 | 251 | 7.0 | 11.0 | 0.00 | 0.00 | 0.00 | 65 | 1011.7 |
| 20260831141845 | 74 | 251 | 6.0 | 10.0 | 0.00 | 0.00 | 0.00 | 64 | 1011.8 |
| 20260831141344 | 74 | 229 | 8.0 | 16.0 | 0.00 | 0.00 | 0.00 | 64 | 1011.9 |
| 20260831140844 | 74 | 215 | 9.0 | 16.0 | 0.00 | 0.00 | 0.00 | 64 | 1011.8 |
| 20260831140626 | 74 | 227 | 8.0 | 14.0 | 0.00 | 0.00 | 0.00 | 66 | 1011.9 |
| 20260831140125 | 74 | 220 | 10.0 | 14.0 | 0.00 | 0.00 | 0.00 | 66 | 1011.8 |
| 20260831135342 | 74 | 200 | 7.0 | 15.0 | 0.00 | 0.00 | 0.00 | 66 | 1011.8 |
| 20260831134844 | 74 | 234 | 9.0 | 15.0 | 0.00 | 0.00 | 0.00 | 67 | 1011.9 |
| 20260831134345 | 74 | 249 | 8.0 | 12.0 | 0.00 | 0.00 | 0.00 | 68 | 1011.9 |
| 20260831133844 | 73 | 232 | 6.0 | 11.0 | 0.00 | 0.00 | 0.00 | 68 | 1012.0 |
| 20260831133344 | 73 | 235 | 6.0 | 13.0 | 0.00 | 0.00 | 0.00 | 67 | 1011.9 |
| 20260831132833 | 74 | 235 | 6.0 | 13.0 | 0.00 | 0.00 | 0.00 | 66 | 1011.9 |
| 20260831132334 | 74 | 242 | 9.0 | 15.0 | 0.00 | 0.00 | 0.00 | 66 | 1012.0 |
| 20260831131832 | 74 | 263 | 6.0 | 15.0 | 0.00 | 0.00 | 0.00 | 66 | 1012.0 |
| 20260831131315 | 75 | 268 | 11.0 | 15.0 | 0.00 | 0.00 | 0.00 | 67 | 1011.9 |
| 20260831131051 | 74 | 238 | 6.0 | 14.0 | 0.00 | 0.00 | 0.00 | 67 | 1011.9 |
| 20260831130308 | 74 | 273 | 11.0 | 14.0 | 0.00 | 0.00 | 0.00 | 69 | 1011.9 |
| 20260831130053 | 73 | 273 | 4.0 | 14.0 | 0.00 | 0.00 | 0.00 | 71 | 1011.9 |
| 20260831125306 | 72 | 275 | 8.0 | 17.0 | 0.00 | 0.00 | 0.00 | 72 | 1012.0 |
| 20260831124804 | 71 | 225 | 8.0 | 17.0 | 0.00 | 0.00 | 0.00 | 71 | 1012.0 |
| 20260831124343 | 71 | 246 | 9.0 | 16.0 | 0.00 | 0.00 | 0.00 | 70 | 1011.9 |
| 20260831124329 | 71 | 225 | 7.0 | 16.0 | 0.00 | 0.00 | 0.00 | 70 | 1012.0 |
| 20260831123249 | 72 | 246 | 11.0 | 15.0 | 0.00 | 0.00 | 0.00 | 70 | 1011.9 |
| 20260831122741 | 71 | 234 | 9.0 | 15.0 | 0.00 | 0.00 | 0.00 | 72 | 1012.0 |
| 20260831122246 | 71 | 238 | 9.0 | 16.0 | 0.00 | 0.00 | 0.00 | 70 | 1011.9 |
| 20260831121756 | 72 | 208 | 11.0 | 16.0 | 0.00 | 0.00 | 0.00 | 70 | 1011.9 |
| 20260831121245 | 72 | 234 | 5.0 | 10.0 | 0.00 | 0.00 | 0.00 | 70 | 1011.8 |
| 20260831121043 | 72 | 218 | 7.0 | 10.0 | 0.00 | 0.00 | 0.00 | 70 | 1011.8 |
| 20260831120244 | 72 | 204 | 5.0 | 13.0 | 0.00 | 0.00 | 0.00 | 69 | 1011.8 |
| 20260831115742 | 72 | 244 | 9.0 | 13.0 | 0.00 | 0.00 | 0.00 | 69 | 1011.8 |
| 20260831115246 | 72 | 186 | 7.0 | 13.0 | 0.00 | 0.00 | 0.00 | 69 | 1011.7 |
| 20260831114742 | 72 | 211 | 7.0 | 13.0 | 0.00 | 0.00 | 0.00 | 70 | 1011.8 |
| 20260831114245 | 72 | 213 | 10.0 | 12.0 | 0.00 | 0.00 | 0.00 | 69 | 1011.9 |
| 20260831113743 | 72 | 190 | 5.0 | 11.0 | 0.00 | 0.00 | 0.00 | 71 | 1012.0 |
| 20260831113245 | 71 | 258 | 6.0 | 13.0 | 0.00 | 0.00 | 0.00 | 69 | 1011.9 |
| 20260831112741 | 71 | 227 | 9.0 | 13.0 | 0.00 | 0.00 | 0.00 | 69 | 1012.0 |
| 20260831112247 | 72 | 224 | 8.0 | 15.0 | 0.00 | 0.00 | 0.00 | 69 | 1011.9 |
| 20260831111743 | 71 | 203 | 11.0 | 15.0 | 0.00 | 0.00 | 0.00 | 69 | 1011.9 |
| 20260831111246 | 71 | 207 | 9.0 | 14.0 | 0.00 | 0.00 | 0.00 | 69 | 1012.0 |
| 20260831110749 | 71 | 277 | 6.0 | 10.0 | 0.00 | 0.00 | 0.00 | 69 | 1011.9 |
| 20260831110246 | 70 | 242 | 7.0 | 10.0 | 0.00 | 0.00 | 0.00 | 71 | 1012.0 |
| 20260831105742 | 70 | 220 | 5.0 | 10.0 | 0.00 | 0.00 | 0.00 | 75 | 1011.9 |
| 20260831105246 | 69 | 231 | 3.0 | 6.0 | 0.00 | 0.00 | 0.00 | 76 | 1012.1 |
| 20260831104744 | 68 | 187 | 4.0 | 7.0 | 0.00 | 0.00 | 0.00 | 75 | 1012.2 |
| 20260831104245 | 67 | 231 | 5.0 | 7.0 | 0.00 | 0.00 | 0.00 | 75 | 1012.2 |
| 20260831103743 | 67 | 217 | 4.0 | 11.0 | 0.00 | 0.00 | 0.00 | 75 | 1012.3 |
| 20260831103243 | 67 | 211 | 7.0 | 11.0 | 0.00 | 0.00 | 0.00 | 75 | 1012.3 |
| 20260831102742 | 67 | 211 | 5.0 | 9.0 | 0.00 | 0.00 | 0.00 | 76 | 1012.5 |
| 20260831102245 | 67 | 211 | 5.0 | 9.0 | 0.00 | 0.00 | 0.00 | 75 | 1012.4 |
| 20260831102024 | 67 | 224 | 3.0 | 9.0 | 0.00 | 0.00 | 0.00 | 75 | 1012.4 |
| 20260831101244 | 67 | 231 | 6.0 | 9.0 | 0.00 | 0.00 | 0.00 | 75 | 1012.4 |
| 20260831101041 | 67 | 244 | 4.0 | 7.0 | 0.00 | 0.00 | 0.00 | 75 | 1012.3 |
| 20260831100244 | 67 | 251 | 4.0 | 7.0 | 0.00 | 0.00 | 0.00 | 74 | 1012.4 |
| 20260831095741 | 67 | 229 | 4.0 | 6.0 | 0.00 | 0.00 | 0.00 | 74 | 1012.3 |
| 20260831095246 | 67 | 246 | 4.0 | 6.0 | 0.00 | 0.00 | 0.00 | 74 | 1012.3 |
| 20260831094740 | 67 | 222 | 4.0 | 11.0 | 0.00 | 0.00 | 0.00 | 73 | 1012.4 |
| 20260831094242 | 67 | 241 | 6.0 | 11.0 | 0.00 | 0.00 | 0.00 | 74 | 1012.4 |
| 20260831093741 | 66 | 249 | 6.0 | 10.0 | 0.00 | 0.00 | 0.00 | 74 | 1012.4 |
| 20260831093242 | 66 | 256 | 4.0 | 7.0 | 0.00 | 0.00 | 0.00 | 75 | 1012.4 |
| 20260831092739 | 66 | 244 | 5.0 | 11.0 | 0.00 | 0.00 | 0.00 | 74 | 1012.4 |
| 20260831092243 | 66 | 286 | 4.0 | 11.0 | 0.00 | 0.00 | 0.00 | 74 | 1012.2 |
| 20260831091754 | 66 | 284 | 5.0 | 10.0 | 0.00 | 0.00 | 0.00 | 74 | 1012.2 |
| 20260831091241 | 66 | 252 | 7.0 | 9.0 | 0.00 | 0.00 | 0.00 | 74 | 1012.5 |
| 20260831090741 | 66 | 262 | 6.0 | 11.0 | 0.00 | 0.00 | 0.00 | 73 | 1012.4 |
| 20260831090535 | 66 | 234 | 5.0 | 11.0 | 0.00 | 0.00 | 0.00 | 73 | 1012.5 |
| 20260831085741 | 66 | 211 | 8.0 | 10.0 | 0.00 | 0.00 | 0.00 | 73 | 1012.4 |
| 20260831085237 | 0 | 251 | 6.0 | 6.0 | 0.00 | 0.00 | 0.00 | 1012.4 | |
| 20260831085130 | 67 | 220 | 9.0 | 12.0 | 0.00 | 0.00 | 0.00 | 72 | 1012.2 |
| 20260831084407 | 67 | 220 | 9.0 | 12.0 | 0.00 | 0.00 | 0.00 | 72 | 1012.2 |
| 20260831083904 | 67 | 245 | 10.0 | 14.0 | 0.00 | 0.00 | 0.00 | 73 | 1012.2 |
| 20260831083406 | 67 | 266 | 8.0 | 14.0 | 0.00 | 0.00 | 0.00 | 73 | 1012.2 |
| 20260831082902 | 67 | 297 | 9.0 | 13.0 | 0.00 | 0.00 | 0.00 | 74 | 1012.0 |
| 20260831082403 | 66 | 260 | 7.0 | 13.0 | 0.00 | 0.00 | 0.00 | 74 | 1012.1 |
| 20260831081903 | 66 | 239 | 5.0 | 13.0 | 0.00 | 0.00 | 0.00 | 74 | 1012.2 |
| 20260831081405 | 66 | 231 | 10.0 | 15.0 | 0.00 | 0.00 | 0.00 | 73 | 1012.1 |
| 20260831080905 | 66 | 227 | 11.0 | 16.0 | 0.00 | 0.00 | 0.00 | 74 | 1012.0 |
| 20260831080408 | 65 | 224 | 8.0 | 16.0 | 0.00 | 0.00 | 0.00 | 76 | 1011.8 |
| 20260831075903 | 65 | 245 | 9.0 | 13.0 | 0.00 | 0.00 | 0.00 | 76 | 1011.7 |
| 20260831075405 | 65 | 234 | 10.0 | 14.0 | 0.00 | 0.00 | 0.00 | 76 | 1011.6 |
| 20260831074904 | 64 | 204 | 8.0 | 14.0 | 0.00 | 0.00 | 0.00 | 76 | 1011.4 |
| 20260831074405 | 64 | 210 | 11.0 | 13.0 | 0.00 | 0.00 | 0.00 | 79 | 1011.4 |
| 20260831074147 | 63 | 231 | 7.0 | 10.0 | 0.00 | 0.00 | 0.00 | 79 | 1011.4 |
| 20260831073409 | 62 | 201 | 5.0 | 6.0 | 0.00 | 0.00 | 0.00 | 79 | 1011.2 |
| 20260831072904 | 62 | 177 | 2.0 | 4.0 | 0.00 | 0.00 | 0.00 | 79 | 1011.0 |
| 20260831072405 | 62 | 163 | 1.0 | 3.0 | 0.00 | 0.00 | 0.00 | 79 | 1011.2 |
| 20260831071904 | 62 | 163 | 0.0 | 4.0 | 0.00 | 0.00 | 0.00 | 79 | 1011.3 |
| 20260831071404 | 62 | 163 | 1.0 | 4.0 | 0.00 | 0.00 | 0.00 | 78 | 1011.3 |
| 20260831070903 | 62 | 162 | 2.0 | 5.0 | 0.00 | 0.00 | 0.00 | 78 | 1011.4 |
| 20260831070406 | 62 | 165 | 2.0 | 5.0 | 0.00 | 0.00 | 0.00 | 78 | 1011.5 |
| 20260831065904 | 62 | 186 | 1.0 | 4.0 | 0.00 | 0.00 | 0.00 | 78 | 1011.5 |
| 20260831065403 | 62 | 162 | 1.0 | 5.0 | 0.00 | 0.00 | 0.00 | 78 | 1011.5 |
| 20260831064904 | 62 | 184 | 3.0 | 5.0 | 0.00 | 0.00 | 0.00 | 79 | 1011.4 |
| 20260831064438 | 61 | 155 | 3.0 | 6.0 | 0.00 | 0.00 | 0.00 | 79 | 1011.5 |
| 20260831064422 | 61 | 151 | 2.0 | 6.0 | 0.00 | 0.00 | 0.00 | 79 | 1011.4 |